JA6YCL-13 Weather Reports


time (UTC)temp
C
wind
direction
speed
KPH
gust
KPH
rain 1hr
cm
rain 24hr
cm
rain mn
cm
humidity
%
barometer
mb
20260509101328 19 110 1.6 1.6 0.00 0.00 0.00 34 1018.0
20260509100118 19 111 1.6 3.2 0.00 0.00 0.00 34 1018.0
20260509094823 20 95 3.2 4.8 0.00 0.00 0.00 32 1017.7
20260509093416 20 78 3.2 9.7 0.00 0.00 0.00 31 1017.5
20260509092022 21 78 4.8 9.7 0.00 0.00 0.00 29 1017.4
20260509090732 21 51 3.2 6.4 0.00 0.00 0.00 28 1017.3
20260509085258 21 102 4.8 9.7 0.00 0.00 0.00 27 1017.3
20260509084056 21 112 4.8 6.4 0.00 0.00 0.00 28 1017.2
20260509082823 21 31 3.2 9.7 0.00 0.00 0.00 27 1017.1
20260509081610 21 86 4.8 9.7 0.00 0.00 0.00 26 1017.0
20260509080333 21 31 4.8 9.7 0.00 0.00 0.00 27 1016.9
20260509074852 21 33 6.4 9.7 0.00 0.00 0.00 28 1016.9
20260509073513 21 13 4.8 11.3 0.00 0.00 0.00 28 1016.9
20260509072048 21 55 4.8 11.3 0.00 0.00 0.00 28 1016.6
20260509070623 21 90 9.7 16.1 0.00 0.00 0.00 28 1016.9
20260509065248 22 82 6.4 14.5 0.00 0.00 0.00 27 1016.7
20260509063828 22 81 6.4 16.1 0.00 0.00 0.00 28 1016.7
20260509062513 22 356 4.8 9.7 0.00 0.00 0.00 29 1016.8
20260509061203 22 93 6.4 12.9 0.00 0.00 0.00 28 1017.0
20260509055948 22 73 9.7 16.1 0.00 0.00 0.00 28 1016.8
20260509054743 22 64 6.4 14.5 0.00 0.00 0.00 29 1017.0
20260509053438 21 73 6.4 12.9 0.00 0.00 0.00 29 1017.5
20260509052028 21 60 4.8 12.9 0.00 0.00 0.00 29 1017.5
20260509050830 21 104 4.8 12.9 0.00 0.00 0.00 30 1017.7
20260509045512 21 56 4.8 11.3 0.00 0.00 0.00 30 1018.0
20260509044213 21 118 4.8 14.5 0.00 0.00 0.00 30 1018.4
20260509042740 21 120 3.2 11.3 0.00 0.00 0.00 30 1018.3
20260509041423 20 115 3.2 12.9 0.00 0.00 0.00 31 1018.4
20260509040101 20 101 6.4 14.5 0.00 0.00 0.00 30 1018.4
20260509034758 20 89 6.4 12.9 0.00 0.00 0.00 30 1018.6
20260509033344 20 71 8.0 20.9 0.00 0.00 0.00 28 1018.8
20260509032146 20 106 6.4 12.9 0.00 0.00 0.00 28 1018.9
20260509030838 20 107 11.3 20.9 0.00 0.00 0.00 29 1018.9
20260509025458 20 104 6.4 14.5 0.00 0.00 0.00 27 1019.1
20260509024103 20 78 6.4 16.1 0.00 0.00 0.00 28 1019.3
20260509022648 19 88 6.4 16.1 0.00 0.00 0.00 29 1019.3
20260509021222 19 79 9.7 17.7 0.00 0.00 0.00 30 1019.6
20260509015833 18 90 9.7 16.1 0.00 0.00 0.00 33 1019.8
20260509014348 18 21 4.8 9.7 0.00 0.00 0.00 33 1019.9
20260509013143 18 82 6.4 14.5 0.00 0.00 0.00 35 1020.0
20260509011743 18 80 8.0 14.5 0.00 0.00 0.00 39 1020.2
20260509010538 18 85 6.4 12.9 0.00 0.00 0.00 41 1020.3
20260509005213 17 92 6.4 12.9 0.00 0.00 0.00 42 1020.2
20260509003801 17 354 3.2 11.3 0.00 0.00 0.00 45 1020.3
20260509002306 17 51 4.8 9.7 0.00 0.00 0.00 46 1020.1
20260509000933 17 90 4.8 9.7 0.00 0.00 0.00 47 1020.0
20260508235734 17 347 4.8 12.9 0.00 0.00 0.00 47 1020.0
20260508234346 17 348 3.2 9.7 0.00 0.00 0.00 46 1020.0
20260508232953 17 83 1.6 4.8 0.00 0.00 0.00 47 1019.9
20260508231633 17 313 1.6 3.2 0.00 0.00 0.00 47 1020.0
20260508230337 16 272 1.6 3.2 0.00 0.00 0.00 56 1019.9
20260508224838 15 244 1.6 3.2 0.00 0.00 0.00 57 1019.8
20260508223357 15 256 3.2 6.4 0.00 0.00 0.00 60 1019.9
20260508221928 13 239 4.8 6.4 0.00 0.00 0.00 59 1019.8
20260508220558 13 243 3.2 6.4 0.00 0.00 0.00 60 1019.7
20260508215338 12 209 1.6 4.8 0.00 0.00 0.00 62 1019.8
20260508214013 12 214 1.6 1.6 0.00 0.00 0.00 62 1019.4
20260508212637 12 220 0.0 1.6 0.00 0.00 0.00 63 1019.2
20260508211218 12 246 1.6 1.6 0.00 0.00 0.00 63 1019.1
20260508205743 11 229 1.6 3.2 0.00 0.00 0.00 64 1019.0
20260508204323 11 223 0.0 0.0 0.00 0.00 0.00 63 1018.8
20260508203003 12 226 0.0 1.6 0.00 0.00 0.00 61 1018.6
20260508201523 12 215 1.6 3.2 0.00 0.00 0.00 59 1018.4
20260508200148 12 212 0.0 1.6 0.00 0.00 0.00 57 1018.2
20260508194719 13 248 3.2 11.3 0.00 0.00 0.00 55 1018.1
20260508193223 12 266 1.6 6.4 0.00 0.00 0.00 56 1017.9
20260508191728 12 275 1.6 3.2 0.00 0.00 0.00 56 1017.7
20260508190303 13 270 1.6 4.8 0.00 0.00 0.00 54 1017.6
20260508184813 13 244 4.8 12.9 0.00 0.00 0.00 53 1017.4
20260508183447 13 247 4.8 9.7 0.00 0.00 0.00 52 1017.1
20260508182228 13 237 4.8 9.7 0.00 0.00 0.00 51 1017.1
20260508181026 13 237 4.8 12.9 0.00 0.00 0.00 51 1017.0
20260508175743 13 262 4.8 11.3 0.00 0.00 0.00 49 1016.9
20260508174323 13 242 4.8 11.3 0.00 0.00 0.00 50 1016.9
20260508173113 13 240 6.4 9.7 0.00 0.00 0.00 50 1016.8
20260508171823 13 244 4.8 9.7 0.00 0.00 0.00 50 1016.9
20260508170518 13 266 1.6 4.8 0.00 0.00 0.00 49 1016.9
20260508165153 13 256 1.6 3.2 0.00 0.00 0.00 47 1016.8
20260508163842 14 245 4.8 12.9 0.00 0.00 0.00 46 1016.6
20260508162638 14 235 6.4 14.5 0.00 0.00 0.00 46 1016.6
20260508161253 14 239 6.4 11.3 0.00 0.00 0.00 44 1016.6
20260508160008 14 248 4.8 12.9 0.00 0.00 0.00 44 1016.6
20260508154703 15 249 4.8 11.3 0.00 0.00 0.00 44 1016.6
20260508153232 15 247 6.4 11.3 0.00 0.00 0.00 42 1016.7
20260508152028 15 251 1.6 6.4 0.00 0.00 0.00 43 1016.5
20260508150548 15 264 4.8 14.5 0.00 0.00 0.00 42 1016.6
20260508145328 15 242 4.8 12.9 0.00 0.00 0.00 44 1016.6
20260508143933 15 240 1.6 6.4 0.00 0.00 0.00 46 1016.6
20260508142643 15 239 3.2 9.7 0.00 0.00 0.00 47 1016.7
20260508141448 15 232 3.2 9.7 0.00 0.00 0.00 47 1016.5
20260508140034 15 248 1.6 6.4 0.00 0.00 0.00 47 1016.4
20260508134717 15 235 4.8 11.3 0.00 0.00 0.00 47 1016.4
20260508133347 15 285 3.2 11.3 0.00 0.00 0.00 47 1016.5
20260508132003 14 219 0.0 1.6 0.00 0.00 0.00 54 1016.6
20260508130728 15 219 1.6 1.6 0.00 0.00 0.00 52 1016.3
20260508125328 15 237 1.6 4.8 0.00 0.00 0.00 47 1016.2
20260508123903 16 242 3.2 6.4 0.00 0.00 0.00 43 1016.0
20260508122608 16 241 1.6 4.8 0.00 0.00 0.00 43 1015.9
20260508121307 16 234 1.6 1.6 0.00 0.00 0.00 41 1015.7
20260508120105 16 241 0.0 1.6 0.00 0.00 0.00 37 1015.5
20260508114827 16 240 1.6 3.2 0.00 0.00 0.00 37 1015.5
20260508113410 17 273 0.0 1.6 0.00 0.00 0.00 37 1015.0
20260508112124 17 251 3.2 11.3 0.00 0.00 0.00 39 1015.0
20260508110803 17 307 1.6 9.7 0.00 0.00 0.00 40 1014.7
20260508105558 17 320 1.6 6.4 0.00 0.00 0.00 43 1014.3
20260508104258 17 92 1.6 3.2 0.00 0.00 0.00 50 1013.9
20260508102843 18 107 1.6 6.4 0.00 0.00 0.00 49 1013.5